#timestamp,LO_Frequency,Hit,StdDev 
1605132015.1,286047002.0,N
1605132016.0,286047002.0,N
1605132035.8,286047002.4,N
1605132055.6,286046999.7,N
1605132075.5,286046999.7,N
1605132095.3,286047002.7,N
1605132115.2,286047001.6,N
1605132135.9,286047000.1,N
1605132155.7,286047002.1,N
1605132175.6,286047002.3,N
1605132195.4,286047002.8,N
1605132215.2,286047000.6,N
1605132235.1,286047002.0,N
1605132236.0,286047002.0,N
1605132255.8,286047001.8,N
1605132275.7,286047002.2,N
1605132295.5,286047002.6,N
1605132315.3,286047002.5,N
1605132335.2,286047001.9,N
1605132355.0,286047002.5,N
1605132355.9,286047002.5,N
1605132375.7,286047001.3,N
1605132395.6,286047003.7,Y
1605132415.4,286047001.5,P
1605132435.3,286047002.8,P
1605132455.1,286047000.7,N
1605132475.8,286046999.0,N
1605132495.7,286046999.1,N
1605132515.5,286046998.4,N
1605132535.4,286046998.7,N
1605132555.2,286046998.2,N
1605132575.0,286046998.2,N
1605132575.9,286046998.2,N
1605132595.8,286046998.5,N
1605132615.6,286046998.1,N
1605132635.4,286046998.6,N
1605132655.3,286046998.7,N
1605132675.1,286046999.1,N
1605132695.8,286046998.4,N
1605132715.7,286047000.6,N
1605132735.5,286047001.0,N
1605132755.4,286046998.5,N
1605132775.2,286046998.6,N
1605132795.0,286046998.7,N
1605132795.9,286046998.7,N
1605132815.8,286046999.1,N
1605132835.6,286046998.3,N
1605132855.4,286046999.6,N
1605132875.3,286046999.2,N
1605132895.1,286047000.8,N
1605132915.9,286046996.6,N
1605132935.7,286046996.5,N
1605132955.5,286046997.4,N
1605132975.4,286046994.9,Y
1605132995.2,286046999.5,P
1605133015.0,286046997.5,P
1605133015.9,286046997.5,N
1605133035.8,286046996.7,Y
1605133055.6,286046999.4,P
1605133075.5,286047001.1,N
1605133095.3,286046998.2,N
1605133115.1,286047000.8,N
1605133135.9,286046998.2,N
1605133155.7,286046999.0,N
1605133175.5,286047000.9,N
1605133195.4,286046998.9,N
1605133215.2,286046999.4,N
1605133235.1,286046997.8,N
1605133236.0,286046997.8,N
1605133255.8,286046999.2,N
1605133275.6,286046999.1,N
1605133295.5,286046999.5,N
1605133315.3,286046996.6,Y
1605133335.2,286046998.8,P
1605133355.9,286046999.5,N
1605133375.7,286046998.7,P
1605133395.6,286046998.9,Y
1605133415.4,286046998.7,P
1605133435.2,286046998.4,P
1605133455.1,286046998.5,P
1605133456.0,286046998.5,Y
1605133475.8,286047002.6,P
1605133495.7,286047001.8,N
1605133515.5,286047001.7,N
1605133535.3,286047002.2,N
1605133555.2,286047003.8,N
1605133575.0,286047001.4,N
1605133575.9,286047001.4,N
1605133595.7,286047004.3,Y
1605133615.6,286047002.8,P
1605133635.4,286047002.5,P
1605133655.3,286047002.5,P
1605133675.1,286046999.8,N
1605133676.0,286046999.8,N
1605133695.8,286047001.0,N
1605133715.7,286047000.9,N
1605133735.5,286047000.5,N
1605133755.3,286046998.4,N
1605133775.2,286046999.0,N
1605133795.0,286046998.2,N
1605133795.9,286046998.2,N
1605133815.8,286047001.1,N
1605133835.6,286046998.4,N
1605133855.4,286046998.8,N
1605133875.3,286046999.2,N
1605133895.1,286046999.2,N
1605133915.9,286046998.2,N
1605133935.7,286046998.1,N
1605133955.5,286046998.5,N
1605133975.4,286046998.6,N
1605133995.2,286046998.6,N
1605134015.0,286047001.1,N
1605134015.9,286047001.1,N
1605134035.8,286047000.0,N
1605134055.6,286047001.1,N
1605134075.4,286047000.3,N
1605134095.3,286047000.3,N
1605134115.1,286047002.2,N
1605134135.9,286047002.4,N
1605134155.7,286047001.6,N
1605134175.5,286047004.4,Y
1605134195.4,286047001.4,P
1605134215.2,286047001.9,N
1605134235.0,286047001.9,N
1605134236.0,286047001.9,N
1605134255.8,286047002.3,Y
1605134275.6,286047002.4,P
1605134295.5,286047001.3,N
1605134315.3,286047001.8,P
1605134335.1,286046999.8,N
1605134355.9,286046998.1,N
1605134375.7,286046998.3,N
1605134395.6,286046999.3,N
1605134415.4,286047001.1,N
1605134435.2,286046998.9,N
1605134455.1,286046996.6,N
1605134456.0,286046996.6,N
1605134475.8,286046997.0,N
1605134495.6,286046997.1,N
1605134515.5,286046996.8,N
1605134535.3,286046997.2,N
1605134555.2,286046995.8,N
1605134575.9,286046994.9,N
1605134595.7,286046995.7,N
1605134615.6,286046996.1,N
1605134635.4,286046993.4,N
1605134655.2,286046996.1,N
1605134675.1,286046996.0,N
1605134676.0,286046996.0,N
1605134695.8,286046995.0,N
1605134715.6,286046995.7,N
1605134735.5,286046995.1,N
1605134755.3,286046996.7,N
1605134775.2,286046999.1,N
1605134795.9,286046997.7,N
1605134815.7,286046997.4,N
1605134835.6,286046995.4,N
1605134855.4,286046996.4,N
1605134875.2,286046996.3,N
1605134895.1,286046995.9,N
1605134896.0,286046995.9,N
1605134915.8,286046995.7,N
1605134935.7,286046995.7,N
1605134955.5,286046995.6,Y
1605134975.3,286046999.3,P
1605134995.2,286046999.3,N
1605135015.0,286046998.9,N
1605135015.9,286046998.9,N
1605135035.7,286046999.1,N
1605135055.6,286046998.2,N
1605135075.4,286046998.3,N
1605135095.3,286046998.8,N
1605135115.1,286047001.2,N
1605135116.0,286047001.2,N
1605135135.8,286047000.3,N
1605135155.7,286047001.0,N
1605135175.5,286047001.5,N
1605135195.3,286047000.5,N
1605135215.2,286047000.6,N
1605135235.0,286046999.3,N
1605135235.9,286046999.3,N
1605135255.8,286046999.4,N
1605135275.6,286046998.4,N
1605135295.4,286047000.2,N
1605135315.3,286046998.2,N
1605135335.1,286046998.9,N
1605135355.8,286046998.5,N
1605135375.7,286047000.9,N
1605135395.5,286046999.7,N
1605135415.4,286046999.9,N
1605135435.2,286047002.8,N
1605135455.0,286047003.8,N
1605135455.9,286047003.8,N
1605135475.8,286047001.9,N
1605135495.6,286047001.7,N
1605135515.4,286047002.4,N
1605135535.3,286046999.8,N
1605135555.1,286047002.0,N
1605135575.9,286047002.0,N
1605135595.7,286047002.5,N
